Tracking 20093 objects as of 16-Dec-2019
HD Live streaming from Space Station
objects crossing your sky now

COSMOS 2251 DEB

Track COSMOS 2251 DEB now!
10-day predictions


NORAD ID: 34482
Int'l Code: 1993-036UB
Perigee: 712.5 km
Apogee: 827.0 km
Inclination: 74.1 °
Period: 100.1 minutes
Semi major axis: 7140 km
RCS: 0.033 m2 (small)
Launch date: June 16, 1993
Source: Commonwealth of Independent States (former USSR) (CIS)
Launch site: PLESETSK MISSILE AND SPACE COMPLEX (PKMTR)

Note: This is SATELLITE DEBRIS
aabbcc
Your satellite tracking list
Your tracking list is empty




NASA's NSSDC Master Catalog

Two Line Element Set (TLE):
1 34482U 93036UB  19349.85550508 +.00000488 +00000-0 +16183-3 0  9996
2 34482 074.0502 349.0230 0080158 237.9558 190.5260 14.38757917565374
Source of the keplerian elements: AFSPC